Weather in Talshyk

Kazakhstan     53°38′17″N   71°52′14″E
temp.,
°C
wind,
m/s
gust,
m/s
humid.,
%
clouds,
%
prec.,
mm/h
press.,
hPa
HPBL,
m
11 april, sun
sun1100:00−1ene34945 0.0 104184
03:00−2e359618 0.0 1041134
06:00−1ese4592100 0.0 1042316
09:000ese4586100 0.0 1043420
12:00+3ese34745 0.0 1042530
15:00+6ese23686 0.0 1041557
18:00+6ese33700 0.0 1040440
21:00+3sse34855 0.0 104046
12 april, mon
mon1200:00+1s34856 0.0 103947
03:00+1ssw34845 0.0 103848
06:00+1wsw338044 0.0 103827
09:00+5wsw3471100 0.0 1037177
12:00+9w3458100 0.0 1036443
15:00+11wnw4550100 0.0 1035536
18:00+10wnw465685 0.0 1035430
21:00+6nw347755 0.0 103664
13 april, tue
tue1300:00+6nnw3587100 0.0 103689
03:00+6nne3794100 0.0 1037183
06:00+4nne3693100 0.0 1038141
09:00+6ne4681100 0.0 1039265
12:00+9ne34485 0.0 1039799
15:00+11ne33352 0.0 10391042
18:00+12ne22350 0.0 1038968
21:00+8ene22500 0.0 103811
14 april, wed
wed1400:00+6sse22560 0.0 103711
03:00+5ssw22640 0.0 103613
06:00+3ssw22663 0.0 103610
09:00+7ssw23590 0.0 1035169
12:00+11ssw33430 0.0 1033630
15:00+14sw333318 0.0 1031885
18:00+15sw23335 0.0 1029812
21:00+11ssw33485 0.0 102814
15 april, thu
thu1500:00+9ssw33540 0.0 102618
03:00+7sw33593 0.0 102513
06:00+6sw33632 0.0 102417
09:00+9sw23555 0.0 1023141
12:00+14sw23395 0.0 1022543
15:00+17wsw23305 0.0 1020907
18:00+18w12293 0.0 1018941
21:00+12ne11460 0.0 101711